Delavan, Wisconsin, United States (53115)
Lat: 42.63N, Lon: 88.64W
Wx Zone: WIZ070
Local Info
Past Weather Observations for Today

NOTE: This archive is for the closest National Weather Service station to Delavan. Information may differ from the station used for current weather conditions.

Click here for Long-term Archive

Time Weather Temperature Dewpoint Humidity Pressure Winds Precip Visibility
15:55
Clear
61°F / 16°C 41°F / 5°C 48% 29.74 in
(1007 mb)
NNW 8.1 mph
(NNW 13 kph)
- 10SM
15:35
Mostly Cloudy
61°F / 16°C 41°F / 5°C 48% 29.74 in
(1007 mb)
NW 8.1 mph
(NW 13 kph)
- 10SM
15:15
Mostly Cloudy
61°F / 16°C 41°F / 5°C 48% 29.74 in
(1007 mb)
NW 15 mph
(NW 24 kph)
- 10SM
14:55
Partly Cloudy
63°F / 17°C 39°F / 4°C 42% 29.74 in
(1007 mb)
WNW 11.5 mph
(WNW 19 kph)
- 10SM
14:35
Mostly Cloudy
64°F / 18°C 39°F / 4°C 40% 29.74 in
(1007 mb)
NW 15 mph
(NW 24 kph)
- 10SM
14:15
Mostly Cloudy
64°F / 18°C 39°F / 4°C 40% 29.74 in
(1007 mb)
W 12.7 mph
(W 20 kph)
- 10SM
13:55
Overcast
64°F / 18°C 39°F / 4°C 40% 29.74 in
(1007 mb)
W 17.3 mph
(W 28 kph)
- 10SM
13:35
Overcast
63°F / 17°C 39°F / 4°C 42% 29.74 in
(1007 mb)
W 12.7 mph
(W 20 kph)
- 10SM
13:15
Overcast
63°F / 17°C 41°F / 5°C 45% 29.71 in
(1006 mb)
WNW 12.7 mph
(WNW 20 kph)
- 10SM
12:55
Overcast
63°F / 17°C 39°F / 4°C 42% 29.74 in
(1007 mb)
WNW 16.1 mph
(WNW 26 kph)
- 10SM
12:35
Partly Cloudy
63°F / 17°C 39°F / 4°C 42% 29.74 in
(1007 mb)
SSW 13.8 mph
(SSW 22 kph)
- 10SM
12:15
Clear
63°F / 17°C 39°F / 4°C 42% 29.74 in
(1007 mb)
W 13.8 mph
(W 22 kph)
- 10SM
11:55
Clear
61°F / 16°C 39°F / 4°C 45% 29.74 in
(1007 mb)
W 18.4 mph
(W 30 kph)
- 10SM
11:35
Clear
61°F / 16°C 39°F / 4°C 45% 29.74 in
(1007 mb)
W 18.4 mph
(W 30 kph)
- 10SM
11:15
Clear
61°F / 16°C 39°F / 4°C 45% 29.74 in
(1007 mb)
W 21.9 mph
(W 35 kph)
- 10SM
10:55
Clear
61°F / 16°C 39°F / 4°C 45% 29.74 in
(1007 mb)
W 13.8 mph
(W 22 kph)
- 10SM
10:35
Clear
61°F / 16°C 39°F / 4°C 45% 29.74 in
(1007 mb)
W 13.8 mph
(W 22 kph)
- 10SM
10:15
Clear
59°F / 15°C 39°F / 4°C 48% 29.74 in
(1007 mb)
W 18.4 mph
(W 30 kph)
- 10SM
09:55
Clear
61°F / 16°C 39°F / 4°C 45% 29.77 in
(1008 mb)
SSW 17.3 mph
(SSW 28 kph)
- 10SM
09:35
Clear
59°F / 15°C 37°F / 3°C 45% 29.77 in
(1008 mb)
W 15 mph
(W 24 kph)
- 10SM
09:15
Clear
59°F / 15°C 37°F / 3°C 45% 29.77 in
(1008 mb)
W 18.4 mph
(W 30 kph)
- 10SM
08:55
Clear
57°F / 14°C 37°F / 3°C 48% 29.77 in
(1008 mb)
W 16.1 mph
(W 26 kph)
- 10SM
08:35
Clear
55°F / 13°C 37°F / 3°C 51% 29.77 in
(1008 mb)
SSW 19.6 mph
(SSW 32 kph)
- 10SM
08:15
Clear
55°F / 13°C 37°F / 3°C 51% 29.77 in
(1008 mb)
W 11.5 mph
(W 19 kph)
- 10SM
07:55
Clear
54°F / 12°C 37°F / 3°C 54% 29.77 in
(1008 mb)
W 11.5 mph
(W 19 kph)
- 10SM
07:35
Clear
54°F / 12°C 37°F / 3°C 54% 29.77 in
(1008 mb)
SSW 13.8 mph
(SSW 22 kph)
- 10SM
07:15
Clear
52°F / 11°C 37°F / 3°C 58% 29.77 in
(1008 mb)
SSW 9.2 mph
(SSW 15 kph)
- 10SM
06:55
Clear
52°F / 11°C 37°F / 3°C 58% 29.77 in
(1008 mb)
SSW 12.7 mph
(SSW 20 kph)
- 10SM
06:35
Clear
48°F / 9°C 37°F / 3°C 66% 29.77 in
(1008 mb)
SW 8.1 mph
(SW 13 kph)
- 10SM
06:15
Clear
48°F / 9°C 37°F / 3°C 66% 29.8 in
(1009 mb)
SW 9.2 mph
(SW 15 kph)
- 10SM
05:55
Clear
48°F / 9°C 37°F / 3°C 66% 29.8 in
(1009 mb)
SSW 10.4 mph
(SSW 17 kph)
- 10SM
05:35
Clear
48°F / 9°C 37°F / 3°C 66% 29.8 in
(1009 mb)
SSW 9.2 mph
(SSW 15 kph)
- 10SM
05:15
Clear
48°F / 9°C 37°F / 3°C 66% 29.8 in
(1009 mb)
SSW 8.1 mph
(SSW 13 kph)
- 10SM
04:55
Clear
46°F / 8°C 37°F / 3°C 71% 29.8 in
(1009 mb)
SSW 9.2 mph
(SSW 15 kph)
- 10SM
04:35
Clear
48°F / 9°C 37°F / 3°C 66% 29.8 in
(1009 mb)
SSW 8.1 mph
(SSW 13 kph)
- 10SM
04:15
Clear
48°F / 9°C 37°F / 3°C 66% 29.8 in
(1009 mb)
SSW 9.2 mph
(SSW 15 kph)
- 10SM
03:55
Clear
48°F / 9°C 37°F / 3°C 66% 29.8 in
(1009 mb)
SSW 6.9 mph
(SSW 11 kph)
- 10SM
03:35
Clear
50°F / 10°C 37°F / 3°C 62% 29.8 in
(1009 mb)
SSW 8.1 mph
(SSW 13 kph)
- 10SM
03:15
Clear
50°F / 10°C 37°F / 3°C 62% 29.8 in
(1009 mb)
SSW 9.2 mph
(SSW 15 kph)
- 10SM
02:55
Clear
50°F / 10°C 37°F / 3°C 62% 29.8 in
(1009 mb)
SSW 8.1 mph
(SSW 13 kph)
- 10SM
02:35
Clear
50°F / 10°C 37°F / 3°C 62% 29.8 in
(1009 mb)
SSW 6.9 mph
(SSW 11 kph)
- 10SM
02:15
Clear
50°F / 10°C 36°F / 2°C 58% 29.83 in
(1010 mb)
SSW 9.2 mph
(SSW 15 kph)
- 10SM
01:55
Clear
50°F / 10°C 37°F / 3°C 62% 29.83 in
(1010 mb)
SSW 8.1 mph
(SSW 13 kph)
- 10SM
01:35
Clear
50°F / 10°C 37°F / 3°C 62% 29.83 in
(1010 mb)
SSW 5.8 mph
(SSW 9 kph)
- 10SM
01:15
Clear
50°F / 10°C 37°F / 3°C 62% 29.83 in
(1010 mb)
SSW 4.6 mph
(SSW 7 kph)
- 10SM
00:55
Clear
50°F / 10°C 37°F / 3°C 62% 29.83 in
(1010 mb)
SSW 5.8 mph
(SSW 9 kph)
- 10SM
00:35
Clear
52°F / 11°C 36°F / 2°C 54% 29.83 in
(1010 mb)
SW 5.8 mph
(SW 9 kph)
- 10SM
00:15
Clear
52°F / 11°C 36°F / 2°C 54% 29.83 in
(1010 mb)
SSW 8.1 mph
(SSW 13 kph)
- 10SM
Time Weather Temperature Dewpoint Humidity Pressure Winds Precip Visibility


Weather for websites

WeatherForYou.com, LLC is not responsible for any damages or problems caused by this service. Current weather conditions are obtained from the closest station including government and personal stations which may have varying degrees of accuracy. Weather forecasts are derived from the NOAA NDFD. Like all things, this site belongs to Jesus Christ... He just trusts us to maintain it. If you have any questions or comments email webmaster@weatherforyou.com

Copyright © 2016, WeatherForYou.com LLC. All rights reserved.